RH
87 79 84 82 87 89 86 87 82 74 74 74 71 72 76 87 83 81 84 88 85 86 84 81 78 85 97
89 80 83 87 84 84 97 90 100 92 87 85 90 86 84 91 91 88 88 91 94 89 74 80 81 76 77
91 97 97 91 97 100 99 100 95 91 100 100 100 97 93 93 85 85 83 93 98 99 96 93 94 99 100
95 93 98 99 100 99 99 100 100 100 99 99 96 96 97 99 99 98 96 97 99 99 100 98 98 99 98
97 100 100 100 100 100 100 100 100 100 100 99 99 93 97 99 98 99 100 99 99 100 100 100 100 97 100
99 100 100 100 100 100 100 100 100 100 99 98 94 92 99 98 99 98 98 100 100 100 100 100 99 99 98
99 100 100 100 100 99 99 98 96 90 88 84 87 98 99 92 86 87 91 86 83 88 91 92 92 97 97
60 67 63 67 72 68 64 61 66 65 70 82 77 79 76 82 87 90 89 85 82 82 81 83 84 85 86
45 40 36 36 38 42 42 41 43 45 42 57 51 49 47 45 46 46 44 44 46 50 50 52 51 53 59
39 38 39 38 38 38 40 41 40 36 40 40 41 42 46 49 49 49 48 47 47 48 49 51 52 51 53
35 36 38 39 39 39 38 38 38 40 42 44 44 45 45 48 44 45 47 49 47 46 45 45 46 51 52
42 41 38 40 46 50 51 50 49 49 48 49 49 48 50 51 53 54 57 58 58 56 56 57 56 54 54
39 43 52 58 59 61 61 58 59 60 56 46 38 34 33 32 35 36 33 37 44 37 32 33 34 36 34
49 55 54 37 31 32 34 34 36 35 31 30 30 30 32 32 35 41 42 45 46 46 42 39 40 46 47
54 40 30 30 27 27 28 29 31 32 34 40 41 41 42 44 49 51 56 55 54 52 51 43 41 48 50
31 29 27 29 32 35 38 37 42 46 47 46 45 46 49 50 51 60 58 55 54 57 62 58 45 45 52
29 28 32 37 42 45 50 55 57 58 60 58 55 56 55 52 54 63 65 63 61 54 58 64 59 48 54
Wind_Speed
19 18 16 15 17 18 16 16 15 16 18 21 21 22 19 17 18 19 20 22 24 21 23 26 24 24 34
20 18 18 18 16 15 13 12 11 13 14 19 17 17 18 19 21 21 22 22 22 21 26 27 24 23 26
20 20 21 17 15 13 12 11 10 11 9 13 14 18 19 19 19 21 25 21 17 14 16 17 18 16 16
14 16 14 13 11 10 8 7 10 9 10 12 13 15 18 18 18 17 18 19 18 19 18 16 15 14 18
14 11 10 10 10 7 7 8 6 6 8 10 12 14 14 15 15 14 14 14 16 14 12 9 6 9 12
6 7 7 5 5 5 6 6 3 6 8 9 10 10 9 10 10 11 12 11 13 13 14 14 12 12 14
5 5 5 6 4 4 4 4 5 6 7 9 11 11 11 10 10 9 9 10 10 10 10 11 11 10 11
11 11 12 12 11 12 12 10 9 10 8 9 10 10 10 10 10 11 11 12 12 12 13 14 15 16 15
12 12 12 11 11 11 8 9 7 8 9 7 9 9 7 8 8 9 10 10 11 12 12 12 13 13 13
9 9 9 9 9 9 10 9 8 5 9 7 8 8 3 5 9 9 10 10 11 12 13 14 15 16 16
6 6 7 7 8 9 9 9 9 8 8 8 8 9 8 9 11 11 10 12 14 15 16 18 19 22 23
5 6 7 8 10 10 10 10 10 9 10 10 11 12 12 13 12 13 15 16 17 18 18 19 20 22 23
7 9 10 12 13 12 11 10 10 11 11 11 11 11 11 12 12 13 14 14 12 18 19 19 20 21 22
9 11 13 12 10 8 7 7 7 8 9 10 10 10 10 10 10 10 12 12 17 19 21 20 19 19 19
11 12 11 9 8 8 7 7 7 7 7 8 10 11 10 9 9 10 12 14 16 20 22 24 21 19 19
11 9 7 5 6 6 7 8 8 9 11 12 12 10 9 11 7 11 15 18 19 19 21 24 26 21 22
7 5 3 4 4 5 7 8 9 11 13 14 15 15 15 15 7 17 21 21 24 24 23 23 28 27 25
Wind_Direction
294 289 293 295 295 295 291 281 278 287 293 298 300 306 310 309 322 315 308 290 282 288 291 286 287 283 260
294 296 294 293 300 301 302 295 293 293 301 305 301 312 317 315 315 321 319 304 299 287 279 289 282 283 284
284 292 292 288 294 294 298 304 304 308 311 306 315 318 314 310 312 315 316 309 307 309 301 301 292 282 252
286 290 289 291 285 293 297 298 299 299 299 310 321 316 314 314 314 315 317 316 308 307 298 299 289 241 245
271 282 279 278 286 292 302 302 310 296 310 318 309 310 313 316 317 325 325 318 310 311 306 303 265 230 194
279 276 285 291 299 301 305 319 317 312 322 329 329 331 335 335 344 337 325 321 316 316 317 313 299 281 281
67 74 48 31 17 9 4 9 32 22 25 31 33 28 31 27 23 18 12 9 5 357 348 347 350 346 325
69 70 67 66 64 65 63 57 52 46 46 48 44 40 35 29 22 15 12 14 14 11 6 2 359 359 358
62 61 56 52 49 45 40 32 25 31 29 30 21 18 23 20 11 2 359 357 356 356 354 350 347 343 339
60 57 53 45 40 36 32 26 23 10 12 10 9 7 343 338 351 346 342 336 333 330 327 323 320 316 311
38 28 20 13 9 9 5 359 356 353 349 346 337 332 330 318 321 321 320 320 315 313 311 310 309 306 303
347 345 352 355 354 351 346 341 338 337 335 331 326 322 320 319 317 311 315 317 314 313 314 313 309 305 304
327 337 341 342 340 336 331 329 328 330 328 327 328 329 329 330 330 330 334 334 333 328 327 325 324 322 317
328 331 333 334 336 340 344 340 342 341 346 347 350 352 353 350 348 355 351 347 335 335 332 331 331 330 325
326 329 333 340 346 357 359 5 5 4 4 3 358 0 359 0 7 9 356 348 341 337 335 332 337 339 329
327 328 331 350 5 10 10 8 11 8 4 6 10 14 17 7 10 6 0 350 343 341 340 333 333 342 333
325 333 347 1 15 12 13 13 8 6 0 358 355 357 356 3 10 5 354 350 337 337 338 334 330 336 334